Regional Weather Roundup
Issued by NWS Charleston, SC

Current Version | Previous Version | Graphics & Text | Print | Product List | Glossary On
Versions: 1 2 3 4 5 6 7 8 9 10 11 12 13 14 15 16 17 18 19 20 21 22 23 24 25 26 27 28 29 30 31 32 33 34 35 36 37 38 39 40 41 42 43 44 45 46 47 48 49 50
000 ASUS42 KCHS 192327 RWRCHS REGIONAL WEATHER ROUNDUP NATIONAL WEATHER SERVICE CHARLESTON SC 600 PM EST SUN NOV 19 2017 NOTE: "FAIR" INDICATES FEW OR NO CLOUDS BELOW 12,000 FEET WITH NO SIGNIFICANT WEATHER AND/OR OBSTRUCTIONS TO VISIBILITY. NOT ALL STATIONS ARE QUALITY CONTROLLED. USE DATA WITH CAUTION... ESPECIALLY DEWPOINT OBSERVATIONS. SCZ027-030-031-034>040-042>050-200000- ...SOUTHEAST SOUTH CAROLINA... CITY SKY/WX TMP DP RH WIND PRES REMARKS N CHARLESTON CLEAR 53 38 56 NW6 29.93R WATERFRONT PRK NOT AVBL JOHNS ISLAND FAIR 54 45 71 CALM 29.95R PINOPOLIS N/A 61 45 55 NW8 29.83R MONCKS CORNER FAIR 50 36 57 CALM 29.94R SUMMERVILLE FAIR 52 37 58 CALM 29.95R BEAUFORT MCAS NOT AVBL BEAUFORT ARPT FAIR 55 43 62 W7 29.96R HILTON HEAD IS CLEAR 59 41 51 W7 29.96 WALTERBORO CLEAR 54 39 58 NW6 29.97R ALLENDALE FAIR 54 34 47 CALM 29.97R ...SOUTHERN MIDLANDS AND PEE DEE... CITY SKY/WX TMP DP RH WIND PRES REMARKS GEORGETOWN FAIR 50 36 57 CALM 29.93R KINGSTREE FAIR 50 30 46 CALM 29.94R ORANGEBURG CLEAR 56 35 45 NW5 29.95R BARNWELL N/A 55 32 41 CALM 29.99R AIKEN FAIR 50 32 50 W5 30.02R MANNING FAIR 52 39 62 MISG 29.95R COLUMBIA PTCLDY 56 36 47 W9 29.95R SUMTER CLEAR 55 25 31 NW5 29.92R FLORENCE CLEAR 56 29 35 N9 29.93R MYRTLE BEACH CLEAR 58 36 43 NW5 29.92R N MYRTLE BEACH PTCLDY 53 39 59 N3 29.90R $$ GAZ063-065-086>088-099>101-113>116-118-119-134>141-150-200000- ...SOUTHEAST GEORGIA... CITY SKY/WX TMP DP RH WIND PRES REMARKS SAVANNAH ARPT CLEAR 56 37 49 NW7 29.97R HUNTER AAF CLEAR 56 38 51 W3 29.94R FORT STEWART CLEAR 55 37 51 W5 29.96R STATESBORO CLEAR 54 31 41 NW8 30.00R SYLVANIA CLEAR 55 37 51 NW8 30.00R CLAXTON FAIR 57 35 43 W8 30.00R ...CSRA...CENTRAL AND FAR SOUTHEAST GEORGIA... CITY SKY/WX TMP DP RH WIND PRES REMARKS THOMSON CLEAR 50 35 57 N5 30.06R AUGUSTA-BUSH CLEAR 53 32 44 W7 29.99R AUGUSTA-DANIEL CLEAR 56 31 38 W6 30.00R SWAINSBORO FAIR 52 36 54 NW7 30.03R VIDALIA CLEAR 55 36 47 NW7 30.02R EASTMAN FAIR 53 27 37 CALM 30.06R HAZLEHURST FAIR 56 20 24 NW3 30.01R ALMA CLEAR 56 35 45 NW5 30.00R WAYCROSS CLEAR 55 32 42 NW7 30.01R JESUP FAIR 55 39 54 NW3 30.00R BAXLEY FAIR 54 34 47 NW7 30.01R BRUNSWICK CLEAR 55 37 50 NW3 29.99R SAINT SIMONS CLEAR 60 40 47 NW6 29.97R $$ SCZ027-028-034-036>038-045-046-048>050-GAZ119-141-200000- ...LAKE AND SUPPLEMENTAL COASTAL OBSERVATIONS... STATION/POSITION TIME TEMP WIND PRES WAVE SWELL AIR SEA DIR/SP/G HT/PER HT/PER/DIR (UTC) (F) (DEG/KT/KT) (MB) (FT/S) (FT/S/D) WINYAH BAY 2230 59 310/ 3 1012.0R LAKE MURRAY 2220 59 270/ 5/ 11 1013.2 ACE BASIN NERRS 2245 58 CALM 1014.0R FORT PULASKI 2300 59 62 320/ 8/ 10 1014.8 SAPELO ISLAND 2300 59 330/ 8 1015.0 $$ ANZ835-935-AMZ111-154-330-350-352-354-370-450-454-472-200000- ...C-MAN AND BUOY OBSERVATIONS... STATION/POSITION TIME TEMP WIND PRES WAVE SWELL AIR SEA DIR/SP/G HT/PER HT/PER/DIR (UTC) (F) (DEG/KT/KT) (MB) (FT/S) (FT/S/D) BUOY 41004 2310 65 74 320/ 17/ 25 1012.6 BUOY 41008 2250 63 68 310/ 17/ 21 1013.7R 3/ 4 FOLLY BEACH CMAN 2300 58 280/ 3/ 4 1014.1R CAPERS NEARSHORE 2308 59 62 320/ 10/ 14 1013.2R FRIPP NEARSHORE 2308 59 62 280/ 14/ 19 1013.5R STATION/POSITION TIME TEMP WIND PRES WAVE SWELL AIR SEA DIR/SP/G HT/PER HT/PER/DIR (UTC) (F) (DEG/KT/KT) (MB) (FT/S) (FT/S/D) 5E ST. MARYS GA 2300 67 N/A 2/ 4 FRYING PAN BUOY 2310 64 71 320/ 19/ 23 1011.9 BUOY 41025 2310 60 65 330/ 16/ 21 1010.5 CAPE LOOKOUT NC 2300 310/ 13/ 17 1011.6R BUOY 41002 2250 71 77 300/ 17/ 21 1008.7R 10/ 9 7/280/ 9 BUOY 41010 NOT AVBL ST AUGUSTINE FL 2300 64 69 320/ 6/ 7 1014.4R $$

USA.gov is the U.S. government's official web portal to all federal, state and local government web resources and services.